Weather History for Tulsa, OK

Change the Weather History Date:

Wednesday, April 2, 2014

  Actual Average Record
Temperature  
Mean Temperature 66 °F 56 °F  
Max Temperature 83 °F 68 °F 89 °F (1918)
Min Temperature 49 °F 45 °F 22 °F (1936)
Degree Days  
Heating Degree Days 0 9  
Month to date heating degree days 14 19  
Since 1 July heating degree days 3877 3368  
Cooling Degree Days 1 1  
Month to date cooling degree days 1 2  
Year to date cooling degree days 2 14  
Growing Degree Days 15 (Base 50)    
Moisture  
Dew Point 58 °F    
Average Humidity 74    
Maximum Humidity 93    
Minimum Humidity 55    
Precipitation  
Precipitation 0.00 in 0.10 in 0.89 in (1916)
Month to date precipitation 0.00 0.21  
Year to date precipitation 2.81 7.01  
Sea Level Pressure  
Sea Level Pressure 29.73 in    
Wind  
Wind Speed 14 mph (SSE)    
Max Wind Speed 26 mph    
Max Gust Speed 33 mph    
Visibility 10 miles    
Events      
T = Trace of Precipitation, MM = Missing Value Source: NWS Daily Summary

Daily Weather History Graph

Daily Weather History Graph

Search for Another Location

Airport:

Trip Planner

Search our weather history database for the weather conditions in past years. The results will help you decide how hot, cold, wet, or windy it might be!

Date:

Astronomy

Apr. 02, 2014 Rise Set
Actual Time 7:08 AM CDT 7:46 PM CDT
Civil Twilight 6:42 AM CDT 8:12 PM CDT
Nautical Twilight 6:11 AM CDT 8:42 PM CDT
Astronomical Twilight 5:40 AM CDT 9:14 PM CDT
Moon 8:58 AM CDT (4/2) 11:05 PM CDT (4/2)
Length of Visible Light 13h 30m
Length of Day
12h 38m
Waxing Crescent, 10% of the Moon is Illuminated
Apr 2
Waxing Crescent
Apr 7
First Quarter
Apr 15
Full
Apr 22
Last Quarter
Apr 29
New

Hourly Weather History & Observations

Time (CDT) Temp. Heat Index Dew Point Humidity Pressure Visibility Wind Dir Wind Speed Gust Speed Precip Events Conditions
12:53 AM 50.0 °F - 41.0 °F 71% 29.86 in 10.0 mi North 6.9 mph - N/A   Scattered Clouds
1:53 AM 50.0 °F - 42.1 °F 74% 29.84 in 10.0 mi NE 5.8 mph - N/A   Mostly Cloudy
2:53 AM 48.9 °F - 43.0 °F 80% 29.83 in 10.0 mi Calm Calm - N/A   Mostly Cloudy
3:03 AM 50.0 °F - 43.0 °F 77% 29.83 in 10.0 mi North 4.6 mph - N/A   Mostly Cloudy
3:53 AM 50.0 °F - 43.0 °F 77% 29.81 in 10.0 mi ENE 3.5 mph - N/A   Overcast
4:04 AM 50.0 °F - 43.0 °F 77% 29.80 in 10.0 mi ENE 3.5 mph - N/A   Overcast
4:53 AM 51.1 °F - 45.0 °F 80% 29.78 in 10.0 mi NNE 3.5 mph - N/A   Overcast
4:59 AM 51.1 °F - 45.0 °F 80% 29.79 in 10.0 mi Calm Calm - N/A   Overcast
5:53 AM 52.0 °F - 45.0 °F 77% 29.78 in 10.0 mi East 3.5 mph - N/A   Overcast
7:53 AM 57.9 °F - 55.0 °F 90% 29.76 in 10.0 mi ESE 6.9 mph - N/A   Overcast
8:53 AM 68.0 °F - 63.0 °F 84% 29.75 in 9.0 mi South 12.7 mph - N/A   Overcast
9:53 AM 71.1 °F - 64.9 °F 81% 29.75 in 10.0 mi South 15.0 mph - N/A   Overcast
10:53 AM 73.9 °F - 66.0 °F 76% 29.75 in 10.0 mi South 21.9 mph 32.2 mph N/A   Mostly Cloudy
11:53 AM 75.0 °F - 66.0 °F 73% 29.75 in 10.0 mi South 18.4 mph - N/A   Overcast
12:44 PM 77.0 °F - 66.0 °F 69% 29.74 in 10.0 mi South 23.0 mph 31.1 mph N/A   Overcast
12:53 PM 77.0 °F - 66.0 °F 69% 29.73 in 10.0 mi South 21.9 mph 31.1 mph N/A   Mostly Cloudy
1:53 PM 81.0 °F 83.0 °F 66.0 °F 60% 29.70 in 10.0 mi South 18.4 mph 32.2 mph N/A   Mostly Cloudy
2:53 PM 82.0 °F 83.8 °F 64.9 °F 56% 29.67 in 10.0 mi South 20.7 mph - N/A   Mostly Cloudy
3:53 PM 81.0 °F 82.7 °F 64.9 °F 58% 29.65 in 10.0 mi South 15.0 mph 24.2 mph N/A   Mostly Cloudy
4:53 PM 80.6 °F 82.7 °F 66.2 °F 61% 29.65 in 10.0 mi South 16.1 mph 26.5 mph N/A   Overcast
5:53 PM 79.0 °F - 66.0 °F 64% 29.63 in 10.0 mi SSE 16.1 mph 27.6 mph N/A   Mostly Cloudy
6:53 PM 79.0 °F - 66.0 °F 64% 29.62 in 10.0 mi SSE 18.4 mph 27.6 mph N/A   Mostly Cloudy
7:53 PM 75.9 °F - 66.0 °F 71% 29.61 in 10.0 mi SSE 18.4 mph 24.2 mph N/A   Overcast
8:53 PM 75.9 °F - 66.0 °F 71% 29.60 in 10.0 mi South 19.6 mph 27.6 mph N/A   Mostly Cloudy
9:53 PM 75.0 °F - 66.9 °F 76% 29.61 in 10.0 mi South 17.3 mph - N/A   Overcast
10:53 PM 75.2 °F - 66.2 °F 73% 29.63 in 10.0 mi South 25.3 mph 33.4 mph N/A   Overcast
11:53 PM 73.9 °F - 66.9 °F 79% 29.62 in 10.0 mi SSE 13.8 mph 23.0 mph N/A   Overcast